WXM80 ListenWXM80 Stop

You find our weather info also at:

UK Metoffice

WeatherCloud

Weather Underground

Northeastern Weather Network

AWEKAS

Citizen Weather Observer Program (CWOP)

HAMweather, WeatherForYou, PWS Weather


Weather Underground History page Text

Daily Summary for July 20, 2017 Units:  Both    English   Metric
« Previous Day
Next Day »
Daily Weekly Monthly Yearly Custom
  High: Low: Average:
Temperature: 98.9 °F /  37.2 °C 71.6 °F /  22 °C 83.5 °F /  28.6 °C
Dew Point: 77.6 °F /  25.3 °C 68.9 °F /  20.5 °C 73.3 °F /  22.9 °C
Humidity: 96 % 43 % 74 %
Wind Speed: 7.0 mph /  11.3 km/h - 0.8 mph /  1.3 km/h
Wind Gust: 15.0 mph /  24.1 km/h - -
Wind:- - SSW
Pressure: 29.94 in /  1013.8 hPa 29.79 in /  1008.7 hPa -
Precipitation: 0.00 in /  0 mm    
Historical Graphs
 
 
Tabular Data for July 20, 2017
Time Temperature Dew Point Pressure Wind Wind Speed Wind Gust Humidity Rainfall Rate (Hourly)
00:00 77.6 °F /  25.3 °C 72.4 °F /  22.4 °C 29.93 in /  1013.4 hPa WSW 0.7 mph /  1.1 km/h 1.2 mph /  1.9 km/h 84 % 0.00 in /  0 mm
00:05 77.6 °F /  25.3 °C 72.4 °F /  22.4 °C 29.93 in /  1013.4 hPa WSW 0.3 mph /  0.5 km/h 1.2 mph /  1.9 km/h 84 % 0.00 in /  0 mm
00:10 77.6 °F /  25.3 °C 72.4 °F /  22.4 °C 29.93 in /  1013.4 hPa WSW 0.4 mph /  0.6 km/h 1.2 mph /  1.9 km/h 84 % 0.00 in /  0 mm
00:15 77.6 °F /  25.3 °C 72.4 °F /  22.4 °C 29.94 in /  1013.8 hPa WSW 0.3 mph /  0.5 km/h 2.3 mph /  3.7 km/h 84 % 0.00 in /  0 mm
00:20 77.6 °F /  25.3 °C 72.4 °F /  22.4 °C 29.93 in /  1013.4 hPa WSW 0.1 mph /  0.2 km/h 1.2 mph /  1.9 km/h 84 % 0.00 in /  0 mm
00:25 77.6 °F /  25.3 °C 72.4 °F /  22.4 °C 29.93 in /  1013.4 hPa WSW 0.6 mph /  1 km/h 1.2 mph /  1.9 km/h 84 % 0.00 in /  0 mm
00:30 77.6 °F /  25.3 °C 72.4 °F /  22.4 °C 29.93 in /  1013.4 hPa WSW 0.5 mph /  0.8 km/h 1.2 mph /  1.9 km/h 84 % 0.00 in /  0 mm
00:35 77.6 °F /  25.3 °C 72.4 °F /  22.4 °C 29.93 in /  1013.4 hPa WSW 0.3 mph /  0.5 km/h 1.2 mph /  1.9 km/h 84 % 0.00 in /  0 mm
00:40 77.6 °F /  25.3 °C 72.4 °F /  22.4 °C 29.93 in /  1013.4 hPa WSW 0.1 mph /  0.2 km/h 1.2 mph /  1.9 km/h 84 % 0.00 in /  0 mm
00:45 77.5 °F /  25.3 °C 72.3 °F /  22.4 °C 29.93 in /  1013.4 hPa Calm     84 % 0.00 in /  0 mm
00:50 77.5 °F /  25.3 °C 72.3 °F /  22.4 °C 29.93 in /  1013.4 hPa Calm     84 % 0.00 in /  0 mm
00:56 77.4 °F /  25.2 °C 72.2 °F /  22.3 °C 29.93 in /  1013.4 hPa Calm   1.0 mph /  1.6 km/h 84 % 0.00 in /  0 mm
01:01 77.3 °F /  25.2 °C 72.1 °F /  22.3 °C 29.93 in /  1013.4 hPa Calm     84 % 0.00 in /  0 mm
01:06 77.2 °F /  25.1 °C 72.0 °F /  22.2 °C 29.93 in /  1013.4 hPa Calm     84 % 0.00 in /  0 mm
01:11 77.1 °F /  25.1 °C 71.9 °F /  22.2 °C 29.93 in /  1013.4 hPa Calm     84 % 0.00 in /  0 mm
01:16 77.0 °F /  25 °C 71.8 °F /  22.1 °C 29.93 in /  1013.4 hPa Calm     84 % 0.00 in /  0 mm
01:21 76.8 °F /  24.9 °C 71.6 °F /  22 °C 29.93 in /  1013.4 hPa Calm     84 % 0.00 in /  0 mm
01:26 76.7 °F /  24.8 °C 71.5 °F /  21.9 °C 29.93 in /  1013.4 hPa Calm     84 % 0.00 in /  0 mm
01:31 76.5 °F /  24.7 °C 71.7 °F /  22.1 °C 29.92 in /  1013.1 hPa Calm     85 % 0.00 in /  0 mm
01:36 76.4 °F /  24.7 °C 71.6 °F /  22 °C 29.92 in /  1013.1 hPa Calm     85 % 0.00 in /  0 mm
01:41 76.2 °F /  24.6 °C 71.4 °F /  21.9 °C 29.93 in /  1013.4 hPa Calm     85 % 0.00 in /  0 mm
01:46 76.1 °F /  24.5 °C 71.6 °F /  22 °C 29.92 in /  1013.1 hPa Calm     86 % 0.00 in /  0 mm
01:51 76.0 °F /  24.4 °C 71.5 °F /  21.9 °C 29.92 in /  1013.1 hPa Calm     86 % 0.00 in /  0 mm
01:56 75.8 °F /  24.3 °C 71.3 °F /  21.8 °C 29.92 in /  1013.1 hPa Calm     86 % 0.00 in /  0 mm
02:01 75.7 °F /  24.3 °C 71.2 °F /  21.8 °C 29.92 in /  1013.1 hPa Calm     86 % 0.00 in /  0 mm
02:06 75.5 °F /  24.2 °C 71.0 °F /  21.7 °C 29.92 in /  1013.1 hPa Calm     86 % 0.00 in /  0 mm
02:11 75.4 °F /  24.1 °C 70.9 °F /  21.6 °C 29.92 in /  1013.1 hPa Calm     86 % 0.00 in /  0 mm
02:16 75.3 °F /  24.1 °C 71.2 °F /  21.8 °C 29.92 in /  1013.1 hPa Calm     87 % 0.00 in /  0 mm
02:21 75.1 °F /  23.9 °C 71.0 °F /  21.7 °C 29.92 in /  1013.1 hPa Calm     87 % 0.00 in /  0 mm
02:26 75.0 °F /  23.9 °C 71.2 °F /  21.8 °C 29.92 in /  1013.1 hPa Calm     88 % 0.00 in /  0 mm
02:31 74.9 °F /  23.8 °C 71.1 °F /  21.7 °C 29.92 in /  1013.1 hPa Calm     88 % 0.00 in /  0 mm
02:36 74.8 °F /  23.8 °C 71.0 °F /  21.7 °C 29.92 in /  1013.1 hPa Calm     88 % 0.00 in /  0 mm
02:41 74.7 °F /  23.7 °C 70.6 °F /  21.4 °C 29.92 in /  1013.1 hPa Calm     87 % 0.00 in /  0 mm
02:46 74.6 °F /  23.7 °C 70.8 °F /  21.6 °C 29.92 in /  1013.1 hPa Calm     88 % 0.00 in /  0 mm
02:52 74.5 °F /  23.6 °C 70.7 °F /  21.5 °C 29.92 in /  1013.1 hPa Calm     88 % 0.00 in /  0 mm
02:57 74.4 °F /  23.6 °C 70.6 °F /  21.4 °C 29.92 in /  1013.1 hPa Calm     88 % 0.00 in /  0 mm
03:02 74.3 °F /  23.5 °C 70.5 °F /  21.4 °C 29.92 in /  1013.1 hPa Calm     88 % 0.00 in /  0 mm
03:07 74.2 °F /  23.4 °C 70.4 °F /  21.3 °C 29.92 in /  1013.1 hPa Calm     88 % 0.00 in /  0 mm
03:12 74.2 °F /  23.4 °C 70.4 °F /  21.3 °C 29.92 in /  1013.1 hPa Calm     88 % 0.00 in /  0 mm
03:17 74.0 °F /  23.3 °C 70.2 °F /  21.2 °C 29.91 in /  1012.8 hPa Calm     88 % 0.00 in /  0 mm
03:22 74.0 °F /  23.3 °C 70.6 °F /  21.4 °C 29.91 in /  1012.8 hPa Calm     89 % 0.00 in /  0 mm
03:27 73.9 °F /  23.3 °C 70.5 °F /  21.4 °C 29.91 in /  1012.8 hPa Calm     89 % 0.00 in /  0 mm
03:32 73.8 °F /  23.2 °C 70.4 °F /  21.3 °C 29.92 in /  1013.1 hPa Calm     89 % 0.00 in /  0 mm
03:37 73.8 °F /  23.2 °C 70.4 °F /  21.3 °C 29.92 in /  1013.1 hPa Calm     89 % 0.00 in /  0 mm
03:42 73.7 °F /  23.2 °C 70.3 °F /  21.3 °C 29.92 in /  1013.1 hPa Calm     89 % 0.00 in /  0 mm
03:47 73.6 °F /  23.1 °C 70.2 °F /  21.2 °C 29.92 in /  1013.1 hPa Calm     89 % 0.00 in /  0 mm
03:52 73.5 °F /  23.1 °C 70.1 °F /  21.2 °C 29.91 in /  1012.8 hPa Calm     89 % 0.00 in /  0 mm
03:57 73.5 °F /  23.1 °C 70.4 °F /  21.3 °C 29.91 in /  1012.8 hPa Calm     90 % 0.00 in /  0 mm
04:02 73.4 °F /  23 °C 70.3 °F /  21.3 °C 29.91 in /  1012.8 hPa WSW 0.1 mph /  0.2 km/h 1.2 mph /  1.9 km/h 90 % 0.00 in /  0 mm
04:07 73.3 °F /  22.9 °C 70.2 °F /  21.2 °C 29.91 in /  1012.8 hPa Calm     90 % 0.00 in /  0 mm
04:12 73.2 °F /  22.9 °C 70.1 °F /  21.2 °C 29.91 in /  1012.8 hPa Calm     90 % 0.00 in /  0 mm
04:17 73.1 °F /  22.8 °C 70.0 °F /  21.1 °C 29.91 in /  1012.8 hPa Calm     90 % 0.00 in /  0 mm
04:22 73.0 °F /  22.8 °C 69.9 °F /  21.1 °C 29.91 in /  1012.8 hPa Calm     90 % 0.00 in /  0 mm
04:27 73.0 °F /  22.8 °C 69.9 °F /  21.1 °C 29.91 in /  1012.8 hPa Calm     90 % 0.00 in /  0 mm
04:32 72.9 °F /  22.7 °C 69.8 °F /  21 °C 29.91 in /  1012.8 hPa Calm     90 % 0.00 in /  0 mm
04:37 72.8 °F /  22.7 °C 69.7 °F /  20.9 °C 29.91 in /  1012.8 hPa Calm     90 % 0.00 in /  0 mm
04:42 72.7 °F /  22.6 °C 69.6 °F /  20.9 °C 29.91 in /  1012.8 hPa Calm     90 % 0.00 in /  0 mm
04:48 72.6 °F /  22.6 °C 69.5 °F /  20.8 °C 29.91 in /  1012.8 hPa Calm     90 % 0.00 in /  0 mm
04:53 72.5 °F /  22.5 °C 69.7 °F /  20.9 °C 29.91 in /  1012.8 hPa Calm     91 % 0.00 in /  0 mm
04:58 72.5 °F /  22.5 °C 69.7 °F /  20.9 °C 29.91 in /  1012.8 hPa Calm     91 % 0.00 in /  0 mm
05:03 72.4 °F /  22.4 °C 69.6 °F /  20.9 °C 29.92 in /  1013.1 hPa Calm     91 % 0.00 in /  0 mm
05:08 72.3 °F /  22.4 °C 69.5 °F /  20.8 °C 29.91 in /  1012.8 hPa Calm     91 % 0.00 in /  0 mm
05:13 72.2 °F /  22.3 °C 69.4 °F /  20.8 °C 29.91 in /  1012.8 hPa Calm     91 % 0.00 in /  0 mm
05:18 72.1 °F /  22.3 °C 69.6 °F /  20.9 °C 29.90 in /  1012.4 hPa Calm     92 % 0.00 in /  0 mm
05:23 72.0 °F /  22.2 °C 69.2 °F /  20.7 °C 29.90 in /  1012.4 hPa Calm     91 % 0.00 in /  0 mm
05:28 72.0 °F /  22.2 °C 69.5 °F /  20.8 °C 29.90 in /  1012.4 hPa Calm     92 % 0.00 in /  0 mm
05:33 71.9 °F /  22.2 °C 69.4 °F /  20.8 °C 29.91 in /  1012.8 hPa Calm     92 % 0.00 in /  0 mm
05:38 71.8 °F /  22.1 °C 69.3 °F /  20.7 °C 29.91 in /  1012.8 hPa Calm     92 % 0.00 in /  0 mm
05:40 71.8 °F /  22.1 °C 69.3 °F /  20.7 °C 29.91 in /  1012.8 hPa Calm     92 % 0.00 in /  0 mm
05:45 71.7 °F /  22.1 °C 69.3 °F /  20.7 °C 29.91 in /  1012.8 hPa Calm     92 % 0.00 in /  0 mm
05:46 71.7 °F /  22.1 °C 69.3 °F /  20.7 °C 29.91 in /  1012.8 hPa Calm     92 % 0.00 in /  0 mm
05:51 71.7 °F /  22.1 °C 69.3 °F /  20.7 °C 29.90 in /  1012.4 hPa Calm   1.2 mph /  1.9 km/h 92 % 0.00 in /  0 mm
05:56 71.7 °F /  22.1 °C 69.3 °F /  20.7 °C 29.91 in /  1012.8 hPa Calm     92 % 0.00 in /  0 mm
06:01 71.7 °F /  22.1 °C 69.6 °F /  20.9 °C 29.90 in /  1012.4 hPa Calm     93 % 0.00 in /  0 mm
06:06 71.7 °F /  22.1 °C 69.6 °F /  20.9 °C 29.91 in /  1012.8 hPa Calm     93 % 0.00 in /  0 mm
06:11 71.6 °F /  22 °C 69.5 °F /  20.8 °C 29.91 in /  1012.8 hPa Calm     93 % 0.00 in /  0 mm
06:16 71.6 °F /  22 °C 69.5 °F /  20.8 °C 29.91 in /  1012.8 hPa Calm     93 % 0.00 in /  0 mm
06:21 71.6 °F /  22 °C 69.5 °F /  20.8 °C 29.91 in /  1012.8 hPa Calm     93 % 0.00 in /  0 mm
06:26 71.7 °F /  22.1 °C 69.6 °F /  20.9 °C 29.91 in /  1012.8 hPa Calm     93 % 0.00 in /  0 mm
06:31 71.8 °F /  22.1 °C 70.0 °F /  21.1 °C 29.91 in /  1012.8 hPa Calm     94 % 0.00 in /  0 mm
06:36 71.9 °F /  22.2 °C 70.1 °F /  21.2 °C 29.91 in /  1012.8 hPa Calm     94 % 0.00 in /  0 mm
06:41 72.2 °F /  22.3 °C 70.7 °F /  21.5 °C 29.92 in /  1013.1 hPa Calm     95 % 0.00 in /  0 mm
06:46 72.6 °F /  22.6 °C 71.1 °F /  21.7 °C 29.92 in /  1013.1 hPa Calm     95 % 0.00 in /  0 mm
06:51 73.2 °F /  22.9 °C 72.0 °F /  22.2 °C 29.92 in /  1013.1 hPa WSW 0.4 mph /  0.6 km/h   96 % 0.00 in /  0 mm
06:52 73.2 °F /  22.9 °C 72.0 °F /  22.2 °C 29.92 in /  1013.1 hPa WSW 0.4 mph /  0.6 km/h 1.2 mph /  1.9 km/h 96 % 0.00 in /  0 mm
06:57 73.5 °F /  23.1 °C 72.3 °F /  22.4 °C 29.92 in /  1013.1 hPa Calm     96 % 0.00 in /  0 mm
07:02 73.8 °F /  23.2 °C 72.6 °F /  22.6 °C 29.93 in /  1013.4 hPa Calm     96 % 0.00 in /  0 mm
07:07 74.1 °F /  23.4 °C 72.9 °F /  22.7 °C 29.93 in /  1013.4 hPa Calm     96 % 0.00 in /  0 mm
07:12 74.3 °F /  23.5 °C 72.8 °F /  22.7 °C 29.93 in /  1013.4 hPa Calm     95 % 0.00 in /  0 mm
07:17 74.6 °F /  23.7 °C 72.8 °F /  22.7 °C 29.93 in /  1013.4 hPa Calm   1.2 mph /  1.9 km/h 94 % 0.00 in /  0 mm
07:22 74.9 °F /  23.8 °C 73.1 °F /  22.8 °C 29.93 in /  1013.4 hPa Calm     94 % 0.00 in /  0 mm
07:27 75.3 °F /  24.1 °C 72.8 °F /  22.7 °C 29.93 in /  1013.4 hPa Calm     92 % 0.00 in /  0 mm
07:32 75.7 °F /  24.3 °C 73.2 °F /  22.9 °C 29.93 in /  1013.4 hPa Calm     92 % 0.00 in /  0 mm
07:37 76.2 °F /  24.6 °C 73.4 °F /  23 °C 29.93 in /  1013.4 hPa Calm     91 % 0.00 in /  0 mm
07:42 76.6 °F /  24.8 °C 73.8 °F /  23.2 °C 29.94 in /  1013.8 hPa Calm     91 % 0.00 in /  0 mm
07:47 76.9 °F /  24.9 °C 73.7 °F /  23.2 °C 29.94 in /  1013.8 hPa Calm     90 % 0.00 in /  0 mm
07:52 77.3 °F /  25.2 °C 73.8 °F /  23.2 °C 29.93 in /  1013.4 hPa Calm     89 % 0.00 in /  0 mm
07:57 77.6 °F /  25.3 °C 74.1 °F /  23.4 °C 29.93 in /  1013.4 hPa North 0.1 mph /  0.2 km/h 1.2 mph /  1.9 km/h 89 % 0.00 in /  0 mm
08:02 77.8 °F /  25.4 °C 74.3 °F /  23.5 °C 29.93 in /  1013.4 hPa Calm   1.2 mph /  1.9 km/h 89 % 0.00 in /  0 mm
08:07 77.9 °F /  25.5 °C 74.1 °F /  23.4 °C 29.93 in /  1013.4 hPa Calm     88 % 0.00 in /  0 mm
08:12 78.0 °F /  25.6 °C 74.2 °F /  23.4 °C 29.93 in /  1013.4 hPa Calm     88 % 0.00 in /  0 mm
08:17 78.1 °F /  25.6 °C 74.6 °F /  23.7 °C 29.93 in /  1013.4 hPa North 0.1 mph /  0.2 km/h   89 % 0.00 in /  0 mm
08:22 78.2 °F /  25.7 °C 74.4 °F /  23.6 °C 29.93 in /  1013.4 hPa Calm     88 % 0.00 in /  0 mm
08:28 78.3 °F /  25.7 °C 74.5 °F /  23.6 °C 29.93 in /  1013.4 hPa NW 0.3 mph /  0.5 km/h 1.2 mph /  1.9 km/h 88 % 0.00 in /  0 mm
08:33 78.5 °F /  25.8 °C 74.3 °F /  23.5 °C 29.93 in /  1013.4 hPa Calm     87 % 0.00 in /  0 mm
08:38 78.6 °F /  25.9 °C 74.4 °F /  23.6 °C 29.93 in /  1013.4 hPa Calm     87 % 0.00 in /  0 mm
08:43 78.8 °F /  26 °C 74.3 °F /  23.5 °C 29.93 in /  1013.4 hPa Calm     86 % 0.00 in /  0 mm
08:48 79.0 °F /  26.1 °C 74.1 °F /  23.4 °C 29.93 in /  1013.4 hPa Calm   2.3 mph /  3.7 km/h 85 % 0.00 in /  0 mm
08:51 79.1 °F /  26.2 °C 74.5 °F /  23.6 °C 29.93 in /  1013.4 hPa Calm   2.0 mph /  3.2 km/h 86 % 0.00 in /  0 mm
08:56 79.3 °F /  26.3 °C 74.7 °F /  23.7 °C 29.93 in /  1013.4 hPa Calm   1.0 mph /  1.6 km/h 86 % 0.00 in /  0 mm
09:00 79.5 °F /  26.4 °C 74.6 °F /  23.7 °C 29.93 in /  1013.4 hPa NE 1.5 mph /  2.4 km/h 2.3 mph /  3.7 km/h 85 % 0.00 in /  0 mm
09:06 79.7 °F /  26.5 °C 74.4 °F /  23.6 °C 29.93 in /  1013.4 hPa Calm   2.0 mph /  3.2 km/h 84 % 0.00 in /  0 mm
09:10 79.9 °F /  26.6 °C 74.3 °F /  23.5 °C 29.93 in /  1013.4 hPa Calm   2.0 mph /  3.2 km/h 83 % 0.00 in /  0 mm
09:15 80.0 °F /  26.7 °C 74.0 °F /  23.3 °C 29.93 in /  1013.4 hPa Calm   2.0 mph /  3.2 km/h 82 % 0.00 in /  0 mm
09:18 80.1 °F /  26.7 °C 73.7 °F /  23.2 °C 29.93 in /  1013.4 hPa WNW 0.1 mph /  0.2 km/h 1.2 mph /  1.9 km/h 81 % 0.00 in /  0 mm
09:23 80.2 °F /  26.8 °C 73.8 °F /  23.2 °C 29.93 in /  1013.4 hPa Calm   1.2 mph /  1.9 km/h 81 % 0.00 in /  0 mm
09:28 80.2 °F /  26.8 °C 73.5 °F /  23.1 °C 29.92 in /  1013.1 hPa Calm   1.2 mph /  1.9 km/h 80 % 0.00 in /  0 mm
09:33 80.2 °F /  26.8 °C 74.2 °F /  23.4 °C 29.92 in /  1013.1 hPa Calm   1.2 mph /  1.9 km/h 82 % 0.00 in /  0 mm
09:38 80.3 °F /  26.8 °C 74.3 °F /  23.5 °C 29.92 in /  1013.1 hPa Calm     82 % 0.00 in /  0 mm
09:43 80.4 °F /  26.9 °C 74.4 °F /  23.6 °C 29.92 in /  1013.1 hPa Calm   1.2 mph /  1.9 km/h 82 % 0.00 in /  0 mm
09:48 80.6 °F /  27 °C 75.0 °F /  23.9 °C 29.92 in /  1013.1 hPa NW 0.4 mph /  0.6 km/h 2.3 mph /  3.7 km/h 83 % 0.00 in /  0 mm
09:53 80.9 °F /  27.2 °C 74.9 °F /  23.8 °C 29.92 in /  1013.1 hPa NW 0.5 mph /  0.8 km/h 2.3 mph /  3.7 km/h 82 % 0.00 in /  0 mm
09:58 81.3 °F /  27.4 °C 75.3 °F /  24.1 °C 29.92 in /  1013.1 hPa NW 1.3 mph /  2.1 km/h 2.3 mph /  3.7 km/h 82 % 0.00 in /  0 mm
10:03 81.8 °F /  27.7 °C 75.8 °F /  24.3 °C 29.92 in /  1013.1 hPa NW 0.1 mph /  0.2 km/h 1.2 mph /  1.9 km/h 82 % 0.00 in /  0 mm
10:08 82.4 °F /  28 °C 75.6 °F /  24.2 °C 29.92 in /  1013.1 hPa NW 0.2 mph /  0.3 km/h 1.2 mph /  1.9 km/h 80 % 0.00 in /  0 mm
10:13 83.1 °F /  28.4 °C 75.9 °F /  24.4 °C 29.92 in /  1013.1 hPa East 0.2 mph /  0.3 km/h 1.2 mph /  1.9 km/h 79 % 0.00 in /  0 mm
10:18 84.0 °F /  28.9 °C 76.4 °F /  24.7 °C 29.92 in /  1013.1 hPa North 2.0 mph /  3.2 km/h 3.5 mph /  5.6 km/h 78 % 0.00 in /  0 mm
10:23 84.8 °F /  29.3 °C 76.8 °F /  24.9 °C 29.92 in /  1013.1 hPa North 0.9 mph /  1.4 km/h 2.0 mph /  3.2 km/h 77 % 0.00 in /  0 mm
10:28 85.6 °F /  29.8 °C 77.6 °F /  25.3 °C 29.92 in /  1013.1 hPa NNE 1.7 mph /  2.7 km/h 4.0 mph /  6.4 km/h 77 % 0.00 in /  0 mm
10:33 86.4 °F /  30.2 °C 76.7 °F /  24.8 °C 29.93 in /  1013.4 hPa NNE 3.1 mph /  5 km/h 4.6 mph /  7.4 km/h 73 % 0.00 in /  0 mm
10:38 87.1 °F /  30.6 °C 77.0 °F /  25 °C 29.93 in /  1013.4 hPa North 0.8 mph /  1.3 km/h 3.5 mph /  5.6 km/h 72 % 0.00 in /  0 mm
10:43 87.3 °F /  30.7 °C 74.1 °F /  23.4 °C 29.93 in /  1013.4 hPa North 0.7 mph /  1.1 km/h 2.0 mph /  3.2 km/h 65 % 0.00 in /  0 mm
10:48 88.0 °F /  31.1 °C 76.1 °F /  24.5 °C 29.92 in /  1013.1 hPa North 1.2 mph /  1.9 km/h 2.3 mph /  3.7 km/h 68 % 0.00 in /  0 mm
10:53 88.8 °F /  31.6 °C 76.9 °F /  24.9 °C 29.93 in /  1013.4 hPa Calm   1.2 mph /  1.9 km/h 68 % 0.00 in /  0 mm
10:58 89.4 °F /  31.9 °C 74.7 °F /  23.7 °C 29.92 in /  1013.1 hPa North 1.3 mph /  2.1 km/h 2.3 mph /  3.7 km/h 62 % 0.00 in /  0 mm
11:03 90.2 °F /  32.3 °C 76.4 °F /  24.7 °C 29.92 in /  1013.1 hPa North 0.3 mph /  0.5 km/h 3.5 mph /  5.6 km/h 64 % 0.00 in /  0 mm
11:08 90.7 °F /  32.6 °C 73.9 °F /  23.3 °C 29.92 in /  1013.1 hPa North 1.6 mph /  2.6 km/h 3.5 mph /  5.6 km/h 58 % 0.00 in /  0 mm
11:13 90.6 °F /  32.6 °C 75.3 °F /  24.1 °C 29.92 in /  1013.1 hPa East 1.0 mph /  1.6 km/h 3.5 mph /  5.6 km/h 61 % 0.00 in /  0 mm
11:18 90.8 °F /  32.7 °C 76.0 °F /  24.4 °C 29.92 in /  1013.1 hPa NW 1.5 mph /  2.4 km/h 3.0 mph /  4.8 km/h 62 % 0.00 in /  0 mm
11:23 91.4 °F /  33 °C 76.5 °F /  24.7 °C 29.92 in /  1013.1 hPa North 1.1 mph /  1.8 km/h 3.5 mph /  5.6 km/h 62 % 0.00 in /  0 mm
11:29 91.9 °F /  33.3 °C 76.5 °F /  24.7 °C 29.92 in /  1013.1 hPa North 1.5 mph /  2.4 km/h 3.5 mph /  5.6 km/h 61 % 0.00 in /  0 mm
11:34 92.3 °F /  33.5 °C 75.9 °F /  24.4 °C 29.92 in /  1013.1 hPa North 2.0 mph /  3.2 km/h 4.6 mph /  7.4 km/h 59 % 0.00 in /  0 mm
11:39 92.3 °F /  33.5 °C 75.4 °F /  24.1 °C 29.92 in /  1013.1 hPa NNE 3.5 mph /  5.6 km/h 4.6 mph /  7.4 km/h 58 % 0.00 in /  0 mm
11:44 92.4 °F /  33.6 °C 74.4 °F /  23.6 °C 29.91 in /  1012.8 hPa North 2.9 mph /  4.7 km/h 4.0 mph /  6.4 km/h 56 % 0.00 in /  0 mm
11:49 92.6 °F /  33.7 °C 75.1 °F /  23.9 °C 29.91 in /  1012.8 hPa North 0.7 mph /  1.1 km/h 2.3 mph /  3.7 km/h 57 % 0.00 in /  0 mm
11:54 92.9 °F /  33.8 °C 74.4 °F /  23.6 °C 29.91 in /  1012.8 hPa North 3.8 mph /  6.1 km/h 5.8 mph /  9.3 km/h 55 % 0.00 in /  0 mm
11:59 93.2 °F /  34 °C 75.7 °F /  24.3 °C 29.91 in /  1012.8 hPa North 1.0 mph /  1.6 km/h 3.5 mph /  5.6 km/h 57 % 0.00 in /  0 mm
12:04 93.4 °F /  34.1 °C 74.3 °F /  23.5 °C 29.91 in /  1012.8 hPa North 1.9 mph /  3.1 km/h 3.5 mph /  5.6 km/h 54 % 0.00 in /  0 mm
12:09 93.6 °F /  34.2 °C 73.3 °F /  22.9 °C 29.91 in /  1012.8 hPa NNE 1.7 mph /  2.7 km/h 2.3 mph /  3.7 km/h 52 % 0.00 in /  0 mm
12:14 93.8 °F /  34.3 °C 74.6 °F /  23.7 °C 29.91 in /  1012.8 hPa NNE 2.5 mph /  4 km/h 3.5 mph /  5.6 km/h 54 % 0.00 in /  0 mm
12:19 93.9 °F /  34.4 °C 73.0 °F /  22.8 °C 29.91 in /  1012.8 hPa NW 1.0 mph /  1.6 km/h 3.5 mph /  5.6 km/h 51 % 0.00 in /  0 mm
12:24 93.9 °F /  34.4 °C 69.3 °F /  20.7 °C 29.91 in /  1012.8 hPa NW 1.9 mph /  3.1 km/h 3.5 mph /  5.6 km/h 45 % 0.00 in /  0 mm
12:29 93.9 °F /  34.4 °C 70.6 °F /  21.4 °C 29.90 in /  1012.4 hPa NNW 1.5 mph /  2.4 km/h 3.5 mph /  5.6 km/h 47 % 0.00 in /  0 mm
12:34 94.3 °F /  34.6 °C 71.6 °F /  22 °C 29.90 in /  1012.4 hPa NNE 1.6 mph /  2.6 km/h 3.5 mph /  5.6 km/h 48 % 0.00 in /  0 mm
12:40 94.3 °F /  34.6 °C 72.8 °F /  22.7 °C 29.89 in /  1012.1 hPa NW 2.3 mph /  3.7 km/h 3.5 mph /  5.6 km/h 50 % 0.00 in /  0 mm
12:45 94.6 °F /  34.8 °C 71.9 °F /  22.2 °C 29.89 in /  1012.1 hPa NNW 1.4 mph /  2.3 km/h 3.5 mph /  5.6 km/h 48 % 0.00 in /  0 mm
12:50 94.8 °F /  34.9 °C 72.7 °F /  22.6 °C 29.89 in /  1012.1 hPa NNW 0.8 mph /  1.3 km/h 3.5 mph /  5.6 km/h 49 % 0.00 in /  0 mm
12:55 94.7 °F /  34.8 °C 71.3 °F /  21.8 °C 29.89 in /  1012.1 hPa North 0.4 mph /  0.6 km/h 2.3 mph /  3.7 km/h 47 % 0.00 in /  0 mm
13:00 94.6 °F /  34.8 °C 70.6 °F /  21.4 °C 29.89 in /  1012.1 hPa North 0.4 mph /  0.6 km/h 3.5 mph /  5.6 km/h 46 % 0.00 in /  0 mm
13:05 94.8 °F /  34.9 °C 71.4 °F /  21.9 °C 29.88 in /  1011.7 hPa NNE 0.4 mph /  0.6 km/h 3.5 mph /  5.6 km/h 47 % 0.00 in /  0 mm
13:10 95.1 °F /  35.1 °C 71.1 °F /  21.7 °C 29.87 in /  1011.4 hPa NNE 0.5 mph /  0.8 km/h 1.2 mph /  1.9 km/h 46 % 0.00 in /  0 mm
13:15 95.1 °F /  35.1 °C 71.7 °F /  22.1 °C 29.87 in /  1011.4 hPa NNE 1.4 mph /  2.3 km/h 3.5 mph /  5.6 km/h 47 % 0.00 in /  0 mm
13:20 95.1 °F /  35.1 °C 71.7 °F /  22.1 °C 29.87 in /  1011.4 hPa Calm   1.2 mph /  1.9 km/h 47 % 0.00 in /  0 mm
13:25 95.1 °F /  35.1 °C 72.9 °F /  22.7 °C 29.88 in /  1011.7 hPa NNE 1.8 mph /  2.9 km/h 3.5 mph /  5.6 km/h 49 % 0.00 in /  0 mm
13:30 95.3 °F /  35.2 °C 74.3 °F /  23.5 °C 29.87 in /  1011.4 hPa North 0.3 mph /  0.5 km/h 2.3 mph /  3.7 km/h 51 % 0.00 in /  0 mm
13:35 95.4 °F /  35.2 °C 75.0 °F /  23.9 °C 29.87 in /  1011.4 hPa WNW 1.8 mph /  2.9 km/h 3.5 mph /  5.6 km/h 52 % 0.00 in /  0 mm
13:40 95.7 °F /  35.4 °C 74.1 °F /  23.4 °C 29.87 in /  1011.4 hPa WSW 2.8 mph /  4.5 km/h 6.9 mph /  11.1 km/h 50 % 0.00 in /  0 mm
13:45 95.9 °F /  35.5 °C 73.7 °F /  23.2 °C 29.87 in /  1011.4 hPa WNW 2.2 mph /  3.5 km/h 4.6 mph /  7.4 km/h 49 % 0.00 in /  0 mm
13:50 96.1 °F /  35.6 °C 73.8 °F /  23.2 °C 29.87 in /  1011.4 hPa NW 4.7 mph /  7.6 km/h 5.8 mph /  9.3 km/h 49 % 0.00 in /  0 mm
13:55 96.3 °F /  35.7 °C 73.4 °F /  23 °C 29.86 in /  1011.1 hPa West 4.1 mph /  6.6 km/h 5.8 mph /  9.3 km/h 48 % 0.00 in /  0 mm
14:01 96.6 °F /  35.9 °C 75.5 °F /  24.2 °C 29.86 in /  1011.1 hPa NNE 3.9 mph /  6.3 km/h 5.0 mph /  8 km/h 51 % 0.00 in /  0 mm
14:06 96.5 °F /  35.8 °C 74.2 °F /  23.4 °C 29.86 in /  1011.1 hPa NNW 1.0 mph /  1.6 km/h 6.0 mph /  9.7 km/h 49 % 0.00 in /  0 mm
14:11 96.6 °F /  35.9 °C 74.9 °F /  23.8 °C 29.85 in /  1010.7 hPa North 2.0 mph /  3.2 km/h 4.0 mph /  6.4 km/h 50 % 0.00 in /  0 mm
14:16 96.9 °F /  36.1 °C 77.5 °F /  25.3 °C 29.85 in /  1010.7 hPa NNW 0.9 mph /  1.4 km/h 2.3 mph /  3.7 km/h 54 % 0.00 in /  0 mm
14:21 97.2 °F /  36.2 °C 75.5 °F /  24.2 °C 29.85 in /  1010.7 hPa NNW 1.8 mph /  2.9 km/h 4.6 mph /  7.4 km/h 50 % 0.00 in /  0 mm
14:26 97.4 °F /  36.3 °C 75.6 °F /  24.2 °C 29.85 in /  1010.7 hPa NNE 2.9 mph /  4.7 km/h 3.5 mph /  5.6 km/h 50 % 0.00 in /  0 mm
14:31 97.6 °F /  36.4 °C 74.0 °F /  23.3 °C 29.85 in /  1010.7 hPa NW 1.6 mph /  2.6 km/h 3.5 mph /  5.6 km/h 47 % 0.00 in /  0 mm
14:36 97.8 °F /  36.6 °C 74.2 °F /  23.4 °C 29.84 in /  1010.4 hPa NNW 0.7 mph /  1.1 km/h 4.6 mph /  7.4 km/h 47 % 0.00 in /  0 mm
14:41 97.9 °F /  36.6 °C 75.5 °F /  24.2 °C 29.84 in /  1010.4 hPa NNW 1.0 mph /  1.6 km/h 3.0 mph /  4.8 km/h 49 % 0.00 in /  0 mm
14:46 98.1 °F /  36.7 °C 76.2 °F /  24.6 °C 29.84 in /  1010.4 hPa Calm   2.0 mph /  3.2 km/h 50 % 0.00 in /  0 mm
14:51 98.1 °F /  36.7 °C 74.4 °F /  23.6 °C 29.84 in /  1010.4 hPa NNW 1.0 mph /  1.6 km/h 4.0 mph /  6.4 km/h 47 % 0.00 in /  0 mm
14:56 98.0 °F /  36.7 °C 73.7 °F /  23.2 °C 29.83 in /  1010 hPa NNW 2.0 mph /  3.2 km/h 5.0 mph /  8 km/h 46 % 0.00 in /  0 mm
15:01 98.1 °F /  36.7 °C 75.7 °F /  24.3 °C 29.84 in /  1010.4 hPa Calm   1.2 mph /  1.9 km/h 49 % 0.00 in /  0 mm
15:06 98.1 °F /  36.7 °C 74.4 °F /  23.6 °C 29.84 in /  1010.4 hPa NW 1.8 mph /  2.9 km/h 3.5 mph /  5.6 km/h 47 % 0.00 in /  0 mm
15:11 98.2 °F /  36.8 °C 74.5 °F /  23.6 °C 29.83 in /  1010 hPa South 0.8 mph /  1.3 km/h 3.5 mph /  5.6 km/h 47 % 0.00 in /  0 mm
15:16 98.4 °F /  36.9 °C 74.7 °F /  23.7 °C 29.83 in /  1010 hPa NNW 1.0 mph /  1.6 km/h 2.3 mph /  3.7 km/h 47 % 0.00 in /  0 mm
15:21 98.6 °F /  37 °C 74.9 °F /  23.8 °C 29.83 in /  1010 hPa West 0.1 mph /  0.2 km/h 1.2 mph /  1.9 km/h 47 % 0.00 in /  0 mm
15:26 98.8 °F /  37.1 °C 74.4 °F /  23.6 °C 29.83 in /  1010 hPa NNE 0.5 mph /  0.8 km/h 3.5 mph /  5.6 km/h 46 % 0.00 in /  0 mm
15:31 98.9 °F /  37.2 °C 74.5 °F /  23.6 °C 29.83 in /  1010 hPa NNE 0.1 mph /  0.2 km/h 1.2 mph /  1.9 km/h 46 % 0.00 in /  0 mm
15:36 98.9 °F /  37.2 °C 74.5 °F /  23.6 °C 29.83 in /  1010 hPa North 1.2 mph /  1.9 km/h 3.5 mph /  5.6 km/h 46 % 0.00 in /  0 mm
15:41 98.9 °F /  37.2 °C 74.5 °F /  23.6 °C 29.83 in /  1010 hPa NNE 2.7 mph /  4.3 km/h 3.5 mph /  5.6 km/h 46 % 0.00 in /  0 mm
15:46 98.7 °F /  37.1 °C 73.7 °F /  23.2 °C 29.83 in /  1010 hPa Calm     45 % 0.00 in /  0 mm
15:51 98.7 °F /  37.1 °C 74.3 °F /  23.5 °C 29.82 in /  1009.7 hPa ENE 0.5 mph /  0.8 km/h 2.3 mph /  3.7 km/h 46 % 0.00 in /  0 mm
15:56 98.3 °F /  36.8 °C 72.0 °F /  22.2 °C 29.83 in /  1010 hPa SE 2.0 mph /  3.2 km/h 4.6 mph /  7.4 km/h 43 % 0.00 in /  0 mm
16:01 98.0 °F /  36.7 °C 75.6 °F /  24.2 °C 29.83 in /  1010 hPa WSW 2.6 mph /  4.2 km/h 4.6 mph /  7.4 km/h 49 % 0.00 in /  0 mm
16:06 97.9 °F /  36.6 °C 76.1 °F /  24.5 °C 29.83 in /  1010 hPa SE 1.4 mph /  2.3 km/h 4.0 mph /  6.4 km/h 50 % 0.00 in /  0 mm
16:11 97.6 °F /  36.4 °C 75.2 °F /  24 °C 29.83 in /  1010 hPa SE 2.7 mph /  4.3 km/h 4.6 mph /  7.4 km/h 49 % 0.00 in /  0 mm
16:16 97.1 °F /  36.2 °C 76.0 °F /  24.4 °C 29.82 in /  1009.7 hPa SSW 2.4 mph /  3.9 km/h 7.0 mph /  11.3 km/h 51 % 0.00 in /  0 mm
16:21 96.7 °F /  35.9 °C 76.2 °F /  24.6 °C 29.82 in /  1009.7 hPa SE 2.1 mph /  3.4 km/h 4.6 mph /  7.4 km/h 52 % 0.00 in /  0 mm
16:26 96.1 °F /  35.6 °C 77.3 °F /  25.2 °C 29.82 in /  1009.7 hPa SSW 1.3 mph /  2.1 km/h 3.5 mph /  5.6 km/h 55 % 0.00 in /  0 mm
16:31 95.4 °F /  35.2 °C 76.7 °F /  24.8 °C 29.82 in /  1009.7 hPa SSE 0.7 mph /  1.1 km/h 2.0 mph /  3.2 km/h 55 % 0.00 in /  0 mm
16:36 94.8 °F /  34.9 °C 76.7 °F /  24.8 °C 29.83 in /  1010 hPa SE 0.1 mph /  0.2 km/h 1.2 mph /  1.9 km/h 56 % 0.00 in /  0 mm
16:41 93.7 °F /  34.3 °C 75.6 °F /  24.2 °C 29.82 in /  1009.7 hPa SE 2.5 mph /  4 km/h 5.8 mph /  9.3 km/h 56 % 0.00 in /  0 mm
16:46 92.9 °F /  33.8 °C 76.5 °F /  24.7 °C 29.82 in /  1009.7 hPa SSE 0.1 mph /  0.2 km/h 2.0 mph /  3.2 km/h 59 % 0.00 in /  0 mm
16:51 92.5 °F /  33.6 °C 77.1 °F /  25.1 °C 29.82 in /  1009.7 hPa SSE 1.6 mph /  2.6 km/h 1.6 mph /  2.6 km/h 61 % 0.00 in /  0 mm
16:56 92.1 °F /  33.4 °C 77.2 °F /  25.1 °C 29.82 in /  1009.7 hPa WSW 0.5 mph /  0.8 km/h 2.3 mph /  3.7 km/h 62 % 0.00 in /  0 mm
17:01 91.9 °F /  33.3 °C 77.5 °F /  25.3 °C 29.82 in /  1009.7 hPa SE 0.8 mph /  1.3 km/h 1.2 mph /  1.9 km/h 63 % 0.00 in /  0 mm
17:06 91.7 °F /  33.2 °C 77.3 °F /  25.2 °C 29.82 in /  1009.7 hPa South 0.8 mph /  1.3 km/h 2.3 mph /  3.7 km/h 63 % 0.00 in /  0 mm
17:12 91.4 °F /  33 °C 77.0 °F /  25 °C 29.81 in /  1009.4 hPa Calm   1.2 mph /  1.9 km/h 63 % 0.00 in /  0 mm
17:17 91.1 °F /  32.8 °C 77.2 °F /  25.1 °C 29.81 in /  1009.4 hPa SSE 0.5 mph /  0.8 km/h 2.0 mph /  3.2 km/h 64 % 0.00 in /  0 mm
17:22 90.8 °F /  32.7 °C 76.9 °F /  24.9 °C 29.81 in /  1009.4 hPa South 0.7 mph /  1.1 km/h 3.0 mph /  4.8 km/h 64 % 0.00 in /  0 mm
17:27 90.5 °F /  32.5 °C 77.1 °F /  25.1 °C 29.81 in /  1009.4 hPa South 1.0 mph /  1.6 km/h 2.3 mph /  3.7 km/h 65 % 0.00 in /  0 mm
17:32 90.3 °F /  32.4 °C 77.4 °F /  25.2 °C 29.81 in /  1009.4 hPa SSW 2.2 mph /  3.5 km/h 3.5 mph /  5.6 km/h 66 % 0.00 in /  0 mm
17:37 90.1 °F /  32.3 °C 76.7 °F /  24.8 °C 29.81 in /  1009.4 hPa SSW 0.8 mph /  1.3 km/h 3.5 mph /  5.6 km/h 65 % 0.00 in /  0 mm
17:42 89.8 °F /  32.1 °C 76.5 °F /  24.7 °C 29.82 in /  1009.7 hPa SSW 1.2 mph /  1.9 km/h 4.0 mph /  6.4 km/h 65 % 0.00 in /  0 mm
17:47 89.6 °F /  32 °C 76.7 °F /  24.8 °C 29.82 in /  1009.7 hPa SSW 0.6 mph /  1 km/h 5.8 mph /  9.3 km/h 66 % 0.00 in /  0 mm
17:52 89.4 °F /  31.9 °C 76.5 °F /  24.7 °C 29.82 in /  1009.7 hPa Calm   1.2 mph /  1.9 km/h 66 % 0.00 in /  0 mm
17:57 89.2 °F /  31.8 °C 76.8 °F /  24.9 °C 29.81 in /  1009.4 hPa SSW 0.7 mph /  1.1 km/h 2.3 mph /  3.7 km/h 67 % 0.00 in /  0 mm
18:02 89.0 °F /  31.7 °C 76.2 °F /  24.6 °C 29.80 in /  1009 hPa WSW 0.5 mph /  0.8 km/h 2.0 mph /  3.2 km/h 66 % 0.00 in /  0 mm
18:07 88.8 °F /  31.6 °C 76.0 °F /  24.4 °C 29.80 in /  1009 hPa SW 0.3 mph /  0.5 km/h 2.3 mph /  3.7 km/h 66 % 0.00 in /  0 mm
18:12 88.6 °F /  31.4 °C 75.8 °F /  24.3 °C 29.80 in /  1009 hPa South 0.1 mph /  0.2 km/h 1.2 mph /  1.9 km/h 66 % 0.00 in /  0 mm
18:17 88.4 °F /  31.3 °C 76.0 °F /  24.4 °C 29.79 in /  1008.7 hPa Calm     67 % 0.00 in /  0 mm
18:22 88.2 °F /  31.2 °C 75.9 °F /  24.4 °C 29.79 in /  1008.7 hPa Calm     67 % 0.00 in /  0 mm
18:27 88.0 °F /  31.1 °C 76.1 °F /  24.5 °C 29.79 in /  1008.7 hPa Calm     68 % 0.00 in /  0 mm
18:32 87.9 °F /  31.1 °C 76.5 °F /  24.7 °C 29.80 in /  1009 hPa Calm     69 % 0.00 in /  0 mm
18:37 87.7 °F /  30.9 °C 76.3 °F /  24.6 °C 29.80 in /  1009 hPa Calm   1.2 mph /  1.9 km/h 69 % 0.00 in /  0 mm
18:42 87.5 °F /  30.8 °C 76.1 °F /  24.5 °C 29.80 in /  1009 hPa South 0.5 mph /  0.8 km/h 2.3 mph /  3.7 km/h 69 % 0.00 in /  0 mm
18:47 87.4 °F /  30.8 °C 76.4 °F /  24.7 °C 29.80 in /  1009 hPa Calm   1.2 mph /  1.9 km/h 70 % 0.00 in /  0 mm
18:52 87.2 °F /  30.7 °C 76.2 °F /  24.6 °C 29.80 in /  1009 hPa Calm     70 % 0.00 in /  0 mm
18:57 87.0 °F /  30.6 °C 76.0 °F /  24.4 °C 29.81 in /  1009.4 hPa SW 0.5 mph /  0.8 km/h 2.3 mph /  3.7 km/h 70 % 0.00 in /  0 mm
19:02 86.8 °F /  30.4 °C 75.8 °F /  24.3 °C 29.81 in /  1009.4 hPa Calm     70 % 0.00 in /  0 mm
19:08 86.7 °F /  30.4 °C 76.2 °F /  24.6 °C 29.82 in /  1009.7 hPa WSW 0.8 mph /  1.3 km/h 2.3 mph /  3.7 km/h 71 % 0.00 in /  0 mm
19:13 86.5 °F /  30.3 °C 76.0 °F /  24.4 °C 29.82 in /  1009.7 hPa WSW 0.1 mph /  0.2 km/h 1.2 mph /  1.9 km/h 71 % 0.00 in /  0 mm
19:18 86.4 °F /  30.2 °C 75.9 °F /  24.4 °C 29.81 in /  1009.4 hPa WSW 0.1 mph /  0.2 km/h 1.2 mph /  1.9 km/h 71 % 0.00 in /  0 mm
19:23 86.3 °F /  30.2 °C 76.2 °F /  24.6 °C 29.81 in /  1009.4 hPa WSW 0.5 mph /  0.8 km/h 3.5 mph /  5.6 km/h 72 % 0.00 in /  0 mm
19:28 86.2 °F /  30.1 °C 76.1 °F /  24.5 °C 29.81 in /  1009.4 hPa WSW 0.1 mph /  0.2 km/h 1.2 mph /  1.9 km/h 72 % 0.00 in /  0 mm
19:33 86.1 °F /  30.1 °C 76.0 °F /  24.4 °C 29.81 in /  1009.4 hPa WSW 1.0 mph /  1.6 km/h 3.5 mph /  5.6 km/h 72 % 0.00 in /  0 mm
19:38 86.0 °F /  30 °C 76.3 °F /  24.6 °C 29.82 in /  1009.7 hPa SSW 0.1 mph /  0.2 km/h 3.5 mph /  5.6 km/h 73 % 0.00 in /  0 mm
19:43 85.9 °F /  29.9 °C 76.2 °F /  24.6 °C 29.82 in /  1009.7 hPa Calm   1.2 mph /  1.9 km/h 73 % 0.00 in /  0 mm
19:48 85.8 °F /  29.9 °C 76.1 °F /  24.5 °C 29.82 in /  1009.7 hPa Calm     73 % 0.00 in /  0 mm
19:53 85.7 °F /  29.8 °C 76.0 °F /  24.4 °C 29.82 in /  1009.7 hPa Calm   1.2 mph /  1.9 km/h 73 % 0.00 in /  0 mm
19:58 85.6 °F /  29.8 °C 75.9 °F /  24.4 °C 29.82 in /  1009.7 hPa Calm     73 % 0.00 in /  0 mm
20:03 85.5 °F /  29.7 °C 75.9 °F /  24.4 °C 29.82 in /  1009.7 hPa Calm     73 % 0.00 in /  0 mm
20:08 85.4 °F /  29.7 °C 76.2 °F /  24.6 °C 29.82 in /  1009.7 hPa Calm     74 % 0.00 in /  0 mm
20:13 85.3 °F /  29.6 °C 76.1 °F /  24.5 °C 29.82 in /  1009.7 hPa Calm     74 % 0.00 in /  0 mm
20:15 85.2 °F /  29.6 °C 76.0 °F /  24.4 °C 29.82 in /  1009.7 hPa Calm     74 % 0.00 in /  0 mm
20:21 85.1 °F /  29.5 °C 75.9 °F /  24.4 °C 29.81 in /  1009.4 hPa Calm     74 % 0.00 in /  0 mm
20:25 85.0 °F /  29.4 °C 75.8 °F /  24.3 °C 29.81 in /  1009.4 hPa Calm     74 % 0.00 in /  0 mm
20:31 84.8 °F /  29.3 °C 76.0 °F /  24.4 °C 29.80 in /  1009 hPa Calm     75 % 0.00 in /  0 mm
20:35 84.7 °F /  29.3 °C 75.9 °F /  24.4 °C 29.80 in /  1009 hPa SW 0.2 mph /  0.3 km/h 1.2 mph /  1.9 km/h 75 % 0.00 in /  0 mm
20:41 84.6 °F /  29.2 °C 75.8 °F /  24.3 °C 29.79 in /  1008.7 hPa Calm     75 % 0.00 in /  0 mm
20:46 84.4 °F /  29.1 °C 76.0 °F /  24.4 °C 29.79 in /  1008.7 hPa Calm     76 % 0.00 in /  0 mm
20:51 84.3 °F /  29.1 °C 76.3 °F /  24.6 °C 29.79 in /  1008.7 hPa Calm     77 % 0.00 in /  0 mm
20:56 84.1 °F /  28.9 °C 76.1 °F /  24.5 °C 29.79 in /  1008.7 hPa Calm   1.0 mph /  1.6 km/h 77 % 0.00 in /  0 mm
21:01 84.0 °F /  28.9 °C 76.0 °F /  24.4 °C 29.79 in /  1008.7 hPa Calm   1.2 mph /  1.9 km/h 77 % 0.00 in /  0 mm
21:06 83.8 °F /  28.8 °C 75.8 °F /  24.3 °C 29.79 in /  1008.7 hPa Calm   1.0 mph /  1.6 km/h 77 % 0.00 in /  0 mm
21:11 83.7 °F /  28.7 °C 75.7 °F /  24.3 °C 29.79 in /  1008.7 hPa SW 0.2 mph /  0.3 km/h 1.2 mph /  1.9 km/h 77 % 0.00 in /  0 mm
21:16 83.5 °F /  28.6 °C 75.5 °F /  24.2 °C 29.79 in /  1008.7 hPa Calm   2.0 mph /  3.2 km/h 77 % 0.00 in /  0 mm
21:21 83.4 °F /  28.6 °C 75.4 °F /  24.1 °C 29.79 in /  1008.7 hPa Calm   1.0 mph /  1.6 km/h 77 % 0.00 in /  0 mm
21:26 83.2 °F /  28.4 °C 75.2 °F /  24 °C 29.79 in /  1008.7 hPa Calm   1.0 mph /  1.6 km/h 77 % 0.00 in /  0 mm
21:31 83.1 °F /  28.4 °C 75.1 °F /  23.9 °C 29.79 in /  1008.7 hPa SW 1.0 mph /  1.6 km/h 5.0 mph /  8 km/h 77 % 0.00 in /  0 mm
21:36 82.9 °F /  28.3 °C 73.8 °F /  23.2 °C 29.80 in /  1009 hPa WSW 3.0 mph /  4.8 km/h 15.0 mph /  24.1 km/h 74 % 0.00 in /  0 mm
21:41 82.9 °F /  28.3 °C 73.4 °F /  23 °C 29.80 in /  1009 hPa WSW 3.0 mph /  4.8 km/h 9.0 mph /  14.5 km/h 73 % 0.00 in /  0 mm
21:46 82.9 °F /  28.3 °C 73.4 °F /  23 °C 29.80 in /  1009 hPa WSW 3.0 mph /  4.8 km/h 8.0 mph /  12.9 km/h 73 % 0.00 in /  0 mm
21:51 82.9 °F /  28.3 °C 72.9 °F /  22.7 °C 29.80 in /  1009 hPa West 2.0 mph /  3.2 km/h 5.0 mph /  8 km/h 72 % 0.00 in /  0 mm
21:56 82.9 °F /  28.3 °C 72.9 °F /  22.7 °C 29.80 in /  1009 hPa West 3.0 mph /  4.8 km/h 9.0 mph /  14.5 km/h 72 % 0.00 in /  0 mm
22:01 82.9 °F /  28.3 °C 72.9 °F /  22.7 °C 29.80 in /  1009 hPa SSW 2.1 mph /  3.4 km/h 8.1 mph /  13 km/h 72 % 0.00 in /  0 mm
22:06 82.8 °F /  28.2 °C 72.8 °F /  22.7 °C 29.81 in /  1009.4 hPa SW 4.0 mph /  6.4 km/h 13.8 mph /  22.2 km/h 72 % 0.00 in /  0 mm
22:11 82.7 °F /  28.2 °C 72.7 °F /  22.6 °C 29.81 in /  1009.4 hPa WSW 3.8 mph /  6.1 km/h 13.8 mph /  22.2 km/h 72 % 0.00 in /  0 mm
22:16 82.5 °F /  28.1 °C 72.6 °F /  22.6 °C 29.81 in /  1009.4 hPa WNW 3.9 mph /  6.3 km/h 8.1 mph /  13 km/h 72 % 0.00 in /  0 mm
22:21 82.3 °F /  27.9 °C 72.0 °F /  22.2 °C 29.81 in /  1009.4 hPa WNW 7.0 mph /  11.3 km/h 13.8 mph /  22.2 km/h 71 % 0.00 in /  0 mm
22:24 82.1 °F /  27.8 °C 71.3 °F /  21.8 °C 29.81 in /  1009.4 hPa SW 6.1 mph /  9.8 km/h 12.7 mph /  20.4 km/h 70 % 0.00 in /  0 mm
22:29 81.8 °F /  27.7 °C 71.1 °F /  21.7 °C 29.81 in /  1009.4 hPa SW 4.8 mph /  7.7 km/h 11.5 mph /  18.5 km/h 70 % 0.00 in /  0 mm
22:34 81.6 °F /  27.6 °C 70.4 °F /  21.3 °C 29.81 in /  1009.4 hPa WSW 2.6 mph /  4.2 km/h 9.2 mph /  14.8 km/h 69 % 0.00 in /  0 mm
22:39 81.3 °F /  27.4 °C 70.2 °F /  21.2 °C 29.81 in /  1009.4 hPa West 1.3 mph /  2.1 km/h 9.2 mph /  14.8 km/h 69 % 0.00 in /  0 mm
22:44 81.1 °F /  27.3 °C 70.0 °F /  21.1 °C 29.81 in /  1009.4 hPa SW 5.5 mph /  8.9 km/h 8.1 mph /  13 km/h 69 % 0.00 in /  0 mm
22:49 80.9 °F /  27.2 °C 70.2 °F /  21.2 °C 29.80 in /  1009 hPa WSW 4.0 mph /  6.4 km/h 8.1 mph /  13 km/h 70 % 0.00 in /  0 mm
22:54 80.6 °F /  27 °C 69.9 °F /  21.1 °C 29.81 in /  1009.4 hPa SSW 3.2 mph /  5.1 km/h 6.9 mph /  11.1 km/h 70 % 0.00 in /  0 mm
22:59 80.4 °F /  26.9 °C 69.7 °F /  20.9 °C 29.80 in /  1009 hPa SW 4.2 mph /  6.8 km/h 6.9 mph /  11.1 km/h 70 % 0.00 in /  0 mm
23:04 80.2 °F /  26.8 °C 69.5 °F /  20.8 °C 29.81 in /  1009.4 hPa WSW 4.2 mph /  6.8 km/h 6.9 mph /  11.1 km/h 70 % 0.00 in /  0 mm
23:09 80.0 °F /  26.7 °C 69.3 °F /  20.7 °C 29.81 in /  1009.4 hPa SW 1.8 mph /  2.9 km/h 3.5 mph /  5.6 km/h 70 % 0.00 in /  0 mm
23:14 79.8 °F /  26.6 °C 69.6 °F /  20.9 °C 29.81 in /  1009.4 hPa WSW 3.1 mph /  5 km/h 6.0 mph /  9.7 km/h 71 % 0.00 in /  0 mm
23:19 79.7 °F /  26.5 °C 69.0 °F /  20.6 °C 29.81 in /  1009.4 hPa West 4.8 mph /  7.7 km/h 6.9 mph /  11.1 km/h 70 % 0.00 in /  0 mm
23:24 79.6 °F /  26.4 °C 69.0 °F /  20.6 °C 29.81 in /  1009.4 hPa SW 2.9 mph /  4.7 km/h 4.6 mph /  7.4 km/h 70 % 0.00 in /  0 mm
23:29 79.4 °F /  26.3 °C 69.2 °F /  20.7 °C 29.80 in /  1009 hPa WSW 3.5 mph /  5.6 km/h 6.9 mph /  11.1 km/h 71 % 0.00 in /  0 mm
23:34 79.3 °F /  26.3 °C 69.1 °F /  20.6 °C 29.80 in /  1009 hPa WSW 1.3 mph /  2.1 km/h 4.0 mph /  6.4 km/h 71 % 0.00 in /  0 mm
23:39 79.2 °F /  26.2 °C 69.0 °F /  20.6 °C 29.81 in /  1009.4 hPa WSW 4.7 mph /  7.6 km/h 6.9 mph /  11.1 km/h 71 % 0.00 in /  0 mm
23:44 79.1 °F /  26.2 °C 68.9 °F /  20.5 °C 29.81 in /  1009.4 hPa WSW 1.2 mph /  1.9 km/h 2.3 mph /  3.7 km/h 71 % 0.00 in /  0 mm
23:49 79.1 °F /  26.2 °C 69.3 °F /  20.7 °C 29.81 in /  1009.4 hPa West 3.7 mph /  6 km/h 6.0 mph /  9.7 km/h 72 % 0.00 in /  0 mm
23:54 79.0 °F /  26.1 °C 69.2 °F /  20.7 °C 29.81 in /  1009.4 hPa WSW 1.9 mph /  3.1 km/h 8.1 mph /  13 km/h 72 % 0.00 in /  0 mm
23:59 78.9 °F /  26.1 °C 69.1 °F /  20.6 °C 29.80 in /  1009 hPa WSW 0.7 mph /  1.1 km/h 3.5 mph /  5.6 km/h 72 % 0.00 in /  0 mm
Crab Meadow Weather
Compliments of Weather Underground - 3 mb

Script developed by  Jim McMurry - jmcmurry@mwt.net Adapted for the template by  Wim van der Kuil - Leuven-Template.eu

Astronomy: A year on Venus is 225 days.